sat.trackr.live / text

‹ back to catalog

STARLINK-36285

NORAD 68530 · 2026-068Y

PAYLOAD ACTIVE UNKNOWN

§ Identity

Operator
Country
US
Launch date
2026-03-30
Launch site
AFETR
Launch vehicle
Mass (kg)
RCS (m²)

Purposes: comms

External: N2YO · Heavens-Above · Gunter

§ Orbital elements

Epoch: 2026-05-25T02:47:07.026720Z

Period
94.11 min
Inclination
53.1585°
Eccentricity
0.0001154
Mean motion
15.30200894 rev/d
Perigee alt
474.4 km
Apogee alt
476.0 km
Semi-major
6,853.3 km
B*
5.9549e-4
RAAN
134.4515°
Arg perigee
90.9648°
Mean anomaly
269.1485°
Rev number
864

§ Raw data

STARLINK-362851 68530U 26068Y   26145.11605355  .00017319  00000+0  59549-3 0  99932 68530  53.1585 134.4515 0001154  90.9648 269.1485 15.30200894  8646

JSON: /api/v1/satellites/68530 · /tle

For live sub-satellite position, see the globe view (requires WebGL).

§ Visibility from observer

Set your observer location to see the next 7 days of passes ≥ 10°. The values pass through the URL so the page stays shareable.

No JS? Fill the form by hand. The geolocation button needs JavaScript.